Andrews, NC

3:53 PM EDT on May 29, 2017 (GMT -0400)
Andrews

Weather History for KRHP - January, 2014

Change the Weather History Date:

Wednesday, January 1, 2014

  Actual Average (KMMI) Record (KMMI)
Temperature  
Mean Temperature 36 °F -  
Max Temperature 49 °F 49 °F 48 °F (2014)
Min Temperature 24 °F 31 °F 19 °F (2014)
Degree Days  
Heating Degree Days 29    
Moisture  
Dew Point 26 °F    
Average Humidity 77    
Maximum Humidity 96    
Minimum Humidity 38    
Precipitation  
Precipitation 0.00 in - - ()
Sea Level Pressure  
Sea Level Pressure 30.25 in    
Wind  
Wind Speed 1 mph (West)    
Max Wind Speed 9 mph    
Max Gust Speed -    
Visibility 10 miles    
Events      
Averages and records for this station are not official NWS values.
T = Trace of Precipitation, MM = Missing Value Source: NWS Daily Summary

Daily Weather History Graph

Daily Weather History Graph

Search for Another Location

Airport or City:

Trip Planner

Search our weather history database for the weather conditions in past years. The results will help you decide how hot, cold, wet, or windy it might be!

Date:

Astronomy

Jan. 01, 2014 Rise Set
Actual Time 7:43 AM EST 5:34 PM EST
Civil Twilight 7:15 AM EST 6:02 PM EST
Nautical Twilight 6:44 AM EST 6:34 PM EST
Astronomical Twilight 6:13 AM EST 7:04 PM EST
Moon 7:35 AM EST (1/1) 6:15 PM EST (1/1)
Length of Visible Light 10h 46m
Length of Day
9h 50m
New Moon, 0% of the Moon is Illuminated
Jan 1
New Moon
Jan 7
First Quarter
Jan 15
Full
Jan 24
Last Quarter
Jan 30
New

Hourly Weather History & Observations

Time (EST) Temp. Windchill Dew Point Humidity Pressure Visibility Wind Dir Wind Speed Gust Speed Precip Events Conditions
12:15 AM 26.6 °F - 24.3 °F 91% 30.32 in 10.0 mi Calm Calm - N/A   Clear
12:35 AM 27.0 °F - 24.3 °F 90% 30.32 in 10.0 mi Calm Calm - N/A   Clear
12:55 AM 26.8 °F - 24.3 °F 90% 30.33 in 10.0 mi Calm Calm - N/A   Clear
1:15 AM 26.8 °F - 24.8 °F 92% 30.33 in 10.0 mi Calm Calm - N/A   Clear
1:35 AM 26.6 °F - 24.4 °F 92% 30.33 in 10.0 mi Calm Calm - N/A   Clear
1:55 AM 26.8 °F - 24.1 °F 90% 30.33 in 10.0 mi Calm Calm - N/A   Clear
2:15 AM 26.4 °F - 24.3 °F 92% 30.33 in 10.0 mi Calm Calm - N/A   Clear
2:35 AM 26.4 °F - 24.8 °F 94% 30.32 in 10.0 mi Calm Calm - N/A   Clear
2:55 AM 26.8 °F - 24.4 °F 91% 30.31 in 10.0 mi Calm Calm - N/A   Clear
3:15 AM 26.1 °F - 24.4 °F 94% 30.31 in 10.0 mi Calm Calm - N/A   Clear
3:35 AM 27.0 °F - 24.4 °F 90% 30.31 in 10.0 mi Calm Calm - N/A   Clear
3:55 AM 25.9 °F - 24.4 °F 94% 30.30 in 10.0 mi Calm Calm - N/A   Clear
4:15 AM 25.3 °F - 23.5 °F 93% 30.30 in 10.0 mi Calm Calm - N/A   Clear
4:35 AM 25.5 °F - 23.7 °F 93% 30.30 in 10.0 mi Calm Calm - N/A   Clear
4:55 AM 25.2 °F - 23.5 °F 94% 30.30 in 10.0 mi Calm Calm - N/A   Clear
5:15 AM 25.2 °F - 23.7 °F 94% 30.30 in 10.0 mi Calm Calm - N/A   Clear
5:35 AM 25.0 °F - 23.5 °F 94% 30.30 in 10.0 mi Calm Calm - N/A   Clear
5:55 AM 24.6 °F - 23.4 °F 95% 30.30 in 10.0 mi Calm Calm - N/A   Clear
6:15 AM 25.2 °F - 23.7 °F 94% 30.30 in 10.0 mi Calm Calm - N/A   Clear
6:35 AM 24.6 °F - 23.4 °F 95% 30.31 in 10.0 mi Calm Calm - N/A   Clear
6:55 AM 24.8 °F - 23.7 °F 96% 30.30 in 10.0 mi Calm Calm - N/A   Clear
7:15 AM 24.8 °F - 23.4 °F 94% 30.31 in 10.0 mi Calm Calm - N/A   Clear
7:35 AM 24.6 °F - 23.4 °F 95% 30.31 in 10.0 mi Calm Calm - N/A   Clear
7:55 AM 24.3 °F - 23.2 °F 96% 30.32 in 10.0 mi Calm Calm - N/A   Clear
8:15 AM 24.6 °F - 22.8 °F 93% 30.32 in 10.0 mi Calm Calm - N/A   Clear
8:35 AM 25.0 °F - 23.5 °F 94% 30.32 in 10.0 mi Calm Calm - N/A   Clear
8:55 AM 27.3 °F - 25.2 °F 92% 30.32 in 10.0 mi Calm Calm - N/A   Clear
9:15 AM 27.9 °F - 25.2 °F 90% 30.33 in 10.0 mi Calm Calm - N/A   Clear
9:35 AM 28.9 °F - 25.0 °F 85% 30.33 in 10.0 mi Calm Calm - N/A   Clear
9:55 AM 30.2 °F - 25.9 °F 84% 30.34 in 10.0 mi Calm Calm - N/A   Clear
10:15 AM 31.8 °F - 26.6 °F 81% 30.34 in 10.0 mi Calm Calm - N/A   Clear
10:35 AM 32.5 °F - 26.4 °F 78% 30.33 in 10.0 mi Calm Calm - N/A   Clear
10:55 AM 36.1 °F - 27.3 °F 70% 30.32 in 10.0 mi Calm Calm - N/A   Clear
11:15 AM 37.0 °F - 28.6 °F 71% 30.32 in 10.0 mi Calm Calm - N/A   Clear
11:35 AM 38.7 °F - 27.1 °F 63% 30.31 in 10.0 mi Calm Calm - N/A   Clear
11:55 AM 40.3 °F 38.2 °F 27.9 °F 61% 30.29 in 10.0 mi West 3.5 mph - N/A   Clear
12:15 PM 41.7 °F 39.8 °F 26.2 °F 54% 30.28 in 10.0 mi SW 3.5 mph - N/A   Clear
12:35 PM 43.5 °F - 25.5 °F 49% 30.26 in 10.0 mi Calm Calm - N/A   Clear
12:55 PM 44.8 °F - 24.8 °F 46% 30.25 in 10.0 mi Calm Calm - N/A   Clear
1:15 PM 45.9 °F 43.6 °F 24.4 °F 43% 30.23 in 10.0 mi WNW 4.6 mph - N/A   Clear
1:35 PM 46.4 °F 43.5 °F 23.2 °F 40% 30.22 in 10.0 mi West 5.8 mph - N/A   Clear
1:55 PM 47.5 °F - 23.0 °F 38% 30.20 in 10.0 mi WNW 6.9 mph - N/A   Clear
2:15 PM 48.2 °F - 24.8 °F 40% 30.20 in 10.0 mi West 9.2 mph - N/A   Clear
2:35 PM 47.5 °F - 25.3 °F 42% 30.19 in 10.0 mi West 9.2 mph - N/A   Clear
2:55 PM 47.8 °F - 25.5 °F 42% 30.19 in 10.0 mi WSW 8.1 mph - N/A   Clear
3:15 PM 48.2 °F - 24.6 °F 40% 30.19 in 10.0 mi West 5.8 mph - N/A   Clear
3:35 PM 48.9 °F - 24.3 °F 38% 30.19 in 10.0 mi West 4.6 mph - N/A   Clear
3:55 PM 48.4 °F - 25.3 °F 41% 30.18 in 10.0 mi West 6.9 mph - N/A   Clear
4:15 PM 47.8 °F - 25.9 °F 42% 30.18 in 10.0 mi WSW 4.6 mph - N/A   Clear
4:35 PM 47.3 °F - 25.9 °F 43% 30.17 in 10.0 mi West 3.5 mph - N/A   Clear
4:55 PM 46.0 °F - 27.1 °F 48% 30.17 in 10.0 mi Calm Calm - N/A   Clear
5:15 PM 41.5 °F - 28.4 °F 60% 30.17 in 10.0 mi Calm Calm - N/A   Clear
5:35 PM 39.6 °F - 28.0 °F 63% 30.17 in 10.0 mi Calm Calm - N/A   Clear
5:55 PM 37.8 °F 35.3 °F 28.2 °F 68% 30.16 in 10.0 mi North 3.5 mph - N/A   Clear
6:15 PM 37.6 °F - 28.0 °F 68% 30.17 in 10.0 mi Calm Calm - N/A   Clear
6:35 PM 34.5 °F - 28.4 °F 78% 30.18 in 10.0 mi Calm Calm - N/A   Clear
6:55 PM 33.4 °F - 27.9 °F 80% 30.18 in 10.0 mi Calm Calm - N/A   Clear
7:15 PM 32.5 °F - 28.4 °F 85% 30.18 in 10.0 mi Calm Calm - N/A   Clear
7:35 PM 32.5 °F - 27.3 °F 81% 30.17 in 10.0 mi Calm Calm - N/A   Clear
7:55 PM 32.0 °F - 27.1 °F 82% 30.17 in 10.0 mi Calm Calm - N/A   Clear
8:15 PM 30.9 °F - 28.2 °F 90% 30.17 in 10.0 mi Calm Calm - N/A   Clear
8:35 PM 31.1 °F - 26.8 °F 84% 30.17 in 10.0 mi Calm Calm - N/A   Clear
8:55 PM 30.0 °F - 26.6 °F 87% 30.16 in 10.0 mi Calm Calm - N/A   Clear
9:15 PM 30.2 °F - 27.7 °F 90% 30.16 in 10.0 mi Calm Calm - N/A   Clear
9:35 PM 29.1 °F - 27.1 °F 92% 30.15 in 10.0 mi Calm Calm - N/A   Clear
9:55 PM 30.4 °F - 27.9 °F 90% 30.16 in 10.0 mi Calm Calm - N/A   Scattered Clouds
10:15 PM 32.0 °F - 27.7 °F 84% 30.15 in 10.0 mi Calm Calm - N/A   Overcast
10:35 PM 32.0 °F - 28.9 °F 88% 30.13 in 10.0 mi Calm Calm - N/A   Overcast
10:55 PM 32.4 °F - 28.8 °F 87% 30.13 in 10.0 mi Calm Calm - N/A   Overcast
11:15 PM 32.9 °F - 28.9 °F 85% 30.12 in 10.0 mi Calm Calm - N/A   Overcast
11:35 PM 33.1 °F - 29.3 °F 86% 30.11 in 10.0 mi Calm Calm - N/A   Overcast
11:55 PM 33.4 °F - 29.8 °F 87% 30.11 in 10.0 mi Calm Calm - N/A   Overcast